Weather History for Alexandria, LA

Change the Weather History Date:

Monday, December 28, 2009

  Actual Average Record
Temperature  
Mean Temperature 39 °F 49 °F  
Max Temperature 48 °F 59 °F 79 °F (1954)
Min Temperature 29 °F 40 °F 18 °F (1925)
Degree Days  
Heating Degree Days 26 16  
Month to date heating degree days 479 401  
Since 1 July heating degree days 776 726  
Moisture  
Dew Point 25 °F    
Average Humidity 63    
Maximum Humidity 89    
Minimum Humidity 37    
Precipitation  
Precipitation 0.00 in 0.16 in 2.73 in (1934)
Month to date precipitation 7.78 5.59  
Year to date precipitation 55.44 55.39  
Snow  
Snow 0.00 in - 0.00 in ()
Month to date snowfall 0.2  
Since 1 July snowfall 0.2  
Snow Depth 0.00 in    
Sea Level Pressure  
Sea Level Pressure 30.41 in    
Wind  
Wind Speed 7 mph (NW)    
Max Wind Speed 13 mph    
Max Gust Speed 17 mph    
Visibility 10 miles    
Events      
T = Trace of Precipitation, MM = Missing Value Source: NWS Daily Summary

Daily Weather History Graph

Daily Weather History Graph

Search for Another Location

Airport:

Trip Planner

Search our weather history database for the weather conditions in past years. The results will help you decide how hot, cold, wet, or windy it might be!

Date:

Astronomy

Dec. 28, 2009 Rise Set
Actual Time 7:08 AM CST 5:15 PM CST
Civil Twilight 6:41 AM CST 5:42 PM CST
Nautical Twilight 6:11 AM CST 6:12 PM CST
Astronomical Twilight 5:41 AM CST 6:42 PM CST
Moon 2:14 PM CST (12/28) 3:49 AM CST (12/28)
Length of Visible Light 11h 01m
Length of Day
10h 07m
Waxing Gibbous, 87% of the Moon is Illuminated
Dec 28
Waxing Gibbous
Dec 31
Full
Jan 7
Last Quarter
Jan 15
New
Jan 23
First Quarter

Hourly Weather History & Observations

Time (CST) Temp. Windchill Dew Point Humidity Pressure Visibility Wind Dir Wind Speed Gust Speed Precip Events Conditions
12:53 AM 37.9 °F 31.5 °F 26.1 °F 62% 30.31 in 10.0 mi NW 9.2 mph - N/A   Clear
1:53 AM 37.0 °F 30.4 °F 26.1 °F 65% 30.32 in 10.0 mi NW 9.2 mph - N/A   Clear
2:53 AM 35.1 °F 27.9 °F 26.1 °F 70% 30.35 in 10.0 mi NW 9.2 mph - N/A   Clear
3:53 AM 33.1 °F 26.9 °F 25.0 °F 72% 30.36 in 10.0 mi NW 6.9 mph - N/A   Clear
4:53 AM 32.0 °F 25.6 °F 25.0 °F 75% 30.37 in 10.0 mi NNW 6.9 mph - N/A   Clear
5:53 AM 30.9 °F 22.8 °F 23.0 °F 72% 30.39 in 10.0 mi NNW 9.2 mph - N/A   Clear
6:53 AM 30.0 °F 22.4 °F 23.0 °F 75% 30.42 in 10.0 mi NNW 8.1 mph - N/A   Clear
7:53 AM 32.0 °F 25.6 °F 23.0 °F 69% 30.45 in 10.0 mi NNW 6.9 mph - N/A   Clear
8:53 AM 34.0 °F 26.6 °F 23.0 °F 64% 30.46 in 4.0 mi NNW 9.2 mph - N/A   Haze
9:53 AM 37.0 °F 32.4 °F 21.9 °F 54% 30.48 in 10.0 mi NW 5.8 mph - N/A   Clear
10:53 AM 39.9 °F 35.1 °F 21.9 °F 49% 30.48 in 10.0 mi NNW 6.9 mph - N/A   Clear
11:53 AM 43.0 °F 37.7 °F 21.9 °F 43% 30.46 in 10.0 mi NW 9.2 mph - N/A   Clear
12:53 PM 44.1 °F 38.6 °F 21.0 °F 40% 30.43 in 10.0 mi WNW 10.4 mph - N/A   Clear
1:53 PM 46.9 °F - 23.0 °F 39% 30.40 in 10.0 mi NNW 9.2 mph - N/A   Clear
2:53 PM 48.0 °F - 24.1 °F 39% 30.38 in 10.0 mi NNW 9.2 mph - N/A   Clear
3:53 PM 46.9 °F - 21.9 °F 37% 30.38 in 10.0 mi WNW 10.4 mph - N/A   Clear
4:53 PM 45.0 °F 40.6 °F 25.0 °F 46% 30.38 in 10.0 mi WNW 8.1 mph - N/A   Clear
5:53 PM 42.1 °F 39.2 °F 26.1 °F 53% 30.39 in 10.0 mi WNW 4.6 mph - N/A   Clear
6:53 PM 39.0 °F 36.8 °F 27.0 °F 62% 30.40 in 10.0 mi WNW 3.5 mph - N/A   Clear
7:53 PM 39.9 °F 36.7 °F 26.1 °F 58% 30.42 in 10.0 mi West 4.6 mph - N/A   Clear
8:53 PM 37.9 °F 34.4 °F 28.0 °F 68% 30.42 in 10.0 mi North 4.6 mph - N/A   Clear
9:53 PM 36.0 °F - 28.9 °F 76% 30.43 in 10.0 mi Calm Calm - N/A   Clear
10:53 PM 34.0 °F - 30.0 °F 85% 30.43 in 10.0 mi Calm Calm - N/A   Clear
11:53 PM 32.0 °F - 30.0 °F 92% 30.42 in 10.0 mi Calm Calm - N/A   Clear